Date,TemperatureHighF,TemperatureAvgF,TemperatureLowF,DewpointHighF,DewpointAvgF,DewpointLowF,HumidityHigh,HumidityAvg,HumidityLow,PressureMaxIn,PressureMinIn,WindSpeedMaxMPH,WindSpeedAvgMPH,GustSpeedMaxMPH,PrecipitationSumIn
2013-1-1,26,12,2,25,8,-2,93,82,63,29.84,29.58,10,4,19,0.00
2013-1-2,9,0,-17,3,-5,-22,87,80,70,30.16,29.81,12,2,19,0.00
2013-1-3,12,-3,-19,1,-9,-24,83,75,56,30.20,29.90,4,0,9,0.00
2013-1-4,27,20,7,24,16,2,91,88,78,29.88,29.66,6,0,21,0.00
2013-1-5,26,17,0,24,12,-3,92,81,61,30.17,29.66,14,2,20,0.00
2013-1-6,25,19,5,23,16,2,92,88,81,30.13,29.86,0,0,0,0.00
2013-1-7,24,15,7,22,10,4,92,81,62,30.29,29.89,4,0,11,0.01
2013-1-8,36,24,15,26,19,11,91,81,56,30.30,30.12,5,0,10,0.00
2013-1-9,35,27,18,31,23,15,94,85,71,30.31,29.83,11,4,29,0.00
2013-1-10,33,31,19,29,25,15,85,78,72,30.47,29.89,14,6,27,0.00
2013-1-11,33,24,12,30,19,9,93,80,60,30.47,30.07,17,3,17,0.00
2013-1-12,39,36,33,36,34,30,95,92,87,30.08,30.00,2,1,17,0.21
2013-1-13,42,38,33,40,36,32,96,93,82,30.04,29.81,10,2,19,0.06
2013-1-14,48,38,29,45,33,20,96,83,68,30.16,29.72,10,4,19,0.00
2013-1-15,29,24,16,20,18,13,91,76,63,30.24,30.16,9,9,0,0.00
2013-1-16,27,24,18,25,20,16,92,88,81,30.17,29.69,9,9,0,0.00
2013-1-17,29,17,1,26,9,-10,91,69,46,30.08,29.68,15,7,24,0.00
2013-1-18,13,2,-9,-2,-8,-15,78,61,43,30.31,30.06,15,4,27,0.00
2013-1-19,31,20,9,24,15,0,87,81,67,30.21,29.73,3,3,0,0.00
2013-1-20,34,33,31,26,24,23,78,72,69,29.70,29.34,22,5,24,0.00
2013-1-21,16,11,4,3,0,-2,83,62,44,29.97,29.80,6,1,14,0.00
2013-1-22,10,2,-6,3,-3,-13,84,76,63,30.00,29.75,6,2,15,0.00
2013-1-23,-3,-10,-18,-12,-18,-24,77,67,50,30.12,29.99,12,4,19,0.00
2013-1-24,6,-8,-20,-10,-17,-25,83,65,44,30.21,30.06,9,4,26,0.00
2013-1-26,5,5,5,1,1,1,83,83,83,30.20,30.20,0,0,0,0.00
2013-1-27,15,2,-7,1,-5,-12,85,72,47,30.47,30.21,13,2,17,0.00
2013-1-28,16,6,-9,13,1,-14,89,79,47,30.44,30.02,3,3,0,0.00
2013-1-29,30,19,4,28,15,1,92,84,73,30.15,29.98,4,1,12,0.06
2013-1-30,48,40,30,47,38,28,96,94,92,29.95,29.24,0,0,0,0.57
2013-1-31,49,35,14,48,28,10,96,79,53,29.35,28.72,24,5,35,0.67